• In Hungary
  • List of Countries
  • For 7 days
  • Water Temperature
  • Satellite Maps
  • Weather Map
  • News
  • Weather Widgets
  • user-avatar
    Login

    Hourly Weather Asmera

    Today, 20 October, Saturday

    Time Temperature Precipitation Wind Pressure Humidity
    00:00 +19°C° 0.7 mm 1 mps 579 mmHg 58%
    01:00 +19°C° 0.3 mm 1 mps 579 mmHg 58%
    02:00 +18°C° 0.3 mm 1 mps 579 mmHg 58%
    03:00 +16°C° 0 mm 0 mps 579 mmHg 58%
    04:00 +16°C° 0.3 mm 0 mps 579 mmHg 59%
    05:00 +16°C° 0.3 mm 0 mps 579 mmHg 60%
    06:00 +15°C° 0.3 mm 0 mps 579 mmHg 61%
    07:00 +16°C° 0.1 mm 0 mps 580 mmHg 56%
    08:00 +17°C° 0.1 mm 0 mps 580 mmHg 51%
    09:00 +20°C° 0 mm 1 mps 581 mmHg 45%
    10:00 +21°C° 0.1 mm 1 mps 581 mmHg 43%
    11:00 +21°C° 0.1 mm 2 mps 581 mmHg 41%
    12:00 +22°C° 0.1 mm 3 mps 582 mmHg 39%
    13:00 +22°C° 0.4 mm 3 mps 581 mmHg 40%
    14:00 +22°C° 0.4 mm 3 mps 581 mmHg 41%
    15:00 +22°C° 0 mm 3 mps 581 mmHg 41%
    16:00 +21°C° 0.7 mm 3 mps 580 mmHg 44%
    17:00 +20°C° 0.7 mm 3 mps 580 mmHg 48%
    18:00 +19°C° 0.7 mm 3 mps 580 mmHg 51%
    19:00 +19°C° 0.6 mm 3 mps 580 mmHg 54%
    20:00 +18°C° 0.6 mm 2 mps 580 mmHg 56%
    21:00 +18°C° 0.6 mm 2 mps 580 mmHg 59%
    22:00 +19°C° 0.3 mm 1 mps 580 mmHg 58%
    23:00 +18°C° 0.3 mm 1 mps 580 mmHg 58%

    Tomorrow, 21 October, Sunday

    Time Temperature Precipitation Wind Pressure Humidity
    00:00 +18°C° 0.3 mm 1 mps 580 mmHg 57%
    01:00 +18°C° 0.5 mm 1 mps 580 mmHg 58%
    02:00 +18°C° 0.5 mm 1 mps 579 mmHg 58%
    03:00 +18°C° 0.5 mm 1 mps 579 mmHg 58%
    04:00 +18°C° 0.3 mm 1 mps 579 mmHg 58%
    05:00 +16°C° 0.3 mm 1 mps 579 mmHg 58%
    06:00 +16°C° 0.3 mm 1 mps 579 mmHg 58%
    07:00 +18°C° 0.1 mm 1 mps 580 mmHg 55%
    08:00 +18°C° 0.1 mm 1 mps 580 mmHg 51%
    09:00 +19°C° 0.1 mm 1 mps 581 mmHg 47%
    10:00 +20°C° 0.1 mm 1 mps 581 mmHg 45%
    11:00 +21°C° 0.1 mm 1 mps 581 mmHg 42%
    12:00 +21°C° 0.1 mm 2 mps 581 mmHg 40%
    13:00 +21°C° 0.1 mm 2 mps 581 mmHg 41%
    14:00 +21°C° 0.1 mm 2 mps 581 mmHg 41%
    15:00 +21°C° 0.1 mm 3 mps 580 mmHg 42%
    16:00 +20°C° 0.4 mm 3 mps 580 mmHg 47%
    17:00 +20°C° 0.4 mm 2 mps 580 mmHg 51%
    18:00 +19°C° 0.4 mm 2 mps 579 mmHg 56%
    19:00 +18°C° 0.6 mm 2 mps 580 mmHg 58%
    20:00 +18°C° 0.6 mm 2 mps 580 mmHg 61%
    21:00 +18°C° 0.6 mm 2 mps 580 mmHg 63%
    22:00 +17°C° 0.2 mm 2 mps 580 mmHg 64%
    23:00 +18°C° 0.2 mm 1 mps 580 mmHg 65%

    Day after tomorrow, 22 October, Monday

    Time Temperature Precipitation Wind Pressure Humidity
    00:00 +18°C° 0.2 mm 1 mps 580 mmHg 66%
    01:00 +16°C° 0 mm 1 mps 580 mmHg 67%
    02:00 +16°C° 0 mm 1 mps 579 mmHg 68%
    03:00 +16°C° 0 mm 1 mps 579 mmHg 68%
    04:00 +16°C° 0 mm 1 mps 579 mmHg 69%
    05:00 +15°C° 0 mm 1 mps 579 mmHg 69%
    06:00 +15°C° 0 mm 1 mps 579 mmHg 70%
    07:00 +16°C° 0.1 mm 1 mps 580 mmHg 64%
    08:00 +19°C° 0.1 mm 1 mps 580 mmHg 58%
    09:00 +19°C° 0.1 mm 2 mps 581 mmHg 52%
    10:00 +20°C° 0 mm 2 mps 581 mmHg 48%
    11:00 +21°C° 0 mm 2 mps 582 mmHg 45%
    12:00 +22°C° 0 mm 3 mps 582 mmHg 41%
    13:00 +22°C° 0.2 mm 3 mps 581 mmHg 42%
    14:00 +22°C° 0.2 mm 3 mps 581 mmHg 42%
    15:00 +22°C° 0.2 mm 3 mps 580 mmHg 43%
    16:00 +21°C° 0.6 mm 3 mps 580 mmHg 48%
    17:00 +20°C° 0.6 mm 3 mps 579 mmHg 53%
    18:00 +19°C° 0.6 mm 3 mps 579 mmHg 57%
    19:00 +19°C° 0.9 mm 2 mps 579 mmHg 59%
    20:00 +18°C° 0.9 mm 2 mps 580 mmHg 61%
    21:00 +18°C° 0.9 mm 2 mps 580 mmHg 63%
    22:00 +18°C° 0.6 mm 2 mps 580 mmHg 64%
    23:00 +17°C° 0.6 mm 2 mps 580 mmHg 64%

    23 October, Tuesday

    Time Temperature Precipitation Wind Pressure Humidity
    00:00 +18°C° 0.6 mm 1 mps 580 mmHg 64%
    01:00 +18°C° 0.1 mm 1 mps 579 mmHg 65%
    02:00 +18°C° 0.1 mm 1 mps 579 mmHg 65%
    03:00 +16°C° 0.1 mm 1 mps 579 mmHg 66%
    04:00 +16°C° 0 mm 1 mps 579 mmHg 66%
    05:00 +16°C° 0 mm 1 mps 579 mmHg 66%
    06:00 +15°C° 0 mm 1 mps 579 mmHg 66%
    07:00 +18°C° 0 mm 1 mps 580 mmHg 61%
    08:00 +18°C° 0 mm 2 mps 580 mmHg 57%
    09:00 +19°C° 0 mm 2 mps 581 mmHg 52%
    10:00 +20°C° 0 mm 2 mps 581 mmHg 48%
    11:00 +21°C° 0 mm 2 mps 581 mmHg 44%
    12:00 +23°C° 0 mm 2 mps 582 mmHg 40%
    13:00 +23°C° 0 mm 2 mps 581 mmHg 39%
    14:00 +24°C° 0 mm 2 mps 581 mmHg 39%
    15:00 +24°C° 0 mm 3 mps 580 mmHg 38%
    16:00 +22°C° 0.1 mm 3 mps 580 mmHg 41%
    17:00 +21°C° 0.1 mm 3 mps 580 mmHg 45%
    18:00 +21°C° 0.1 mm 3 mps 580 mmHg 48%
    19:00 +20°C° 0.3 mm 2 mps 580 mmHg 52%
    20:00 +19°C° 0.3 mm 2 mps 580 mmHg 55%
    21:00 +19°C° 0.3 mm 2 mps 580 mmHg 59%
    22:00 +18°C° 0.4 mm 2 mps 580 mmHg 60%
    23:00 +19°C° 0.4 mm 1 mps 580 mmHg 62%

    24 October, Wednesday

    Time Temperature Precipitation Wind Pressure Humidity
    00:00 +19°C° 0.4 mm 1 mps 580 mmHg 63%
    01:00 +18°C° 0.1 mm 1 mps 579 mmHg 63%
    02:00 +18°C° 0.1 mm 1 mps 579 mmHg 64%
    03:00 +18°C° 0.1 mm 1 mps 578 mmHg 64%
    04:00 +16°C° 0 mm 1 mps 579 mmHg 64%
    05:00 +16°C° 0 mm 1 mps 579 mmHg 64%
    06:00 +16°C° 0 mm 1 mps 579 mmHg 64%
    07:00 +18°C° 0 mm 1 mps 579 mmHg 57%
    08:00 +19°C° 0 mm 1 mps 580 mmHg 50%
    09:00 +21°C° 0 mm 1 mps 581 mmHg 43%
    10:00 +22°C° 0 mm 1 mps 581 mmHg 38%
    11:00 +23°C° 0 mm 2 mps 581 mmHg 34%
    12:00 +24°C° 0 mm 2 mps 581 mmHg 29%
    13:00 +24°C° 0 mm 2 mps 581 mmHg 29%
    14:00 +24°C° 0 mm 2 mps 581 mmHg 29%
    15:00 +25°C° 0 mm 3 mps 580 mmHg 28%
    16:00 +24°C° 0 mm 3 mps 580 mmHg 32%
    17:00 +22°C° 0 mm 3 mps 580 mmHg 35%
    18:00 +21°C° 0 mm 3 mps 580 mmHg 38%
    19:00 +21°C° 0 mm 2 mps 580 mmHg 42%
    20:00 +20°C° 0 mm 2 mps 580 mmHg 46%
    21:00 +20°C° 0 mm 1 mps 580 mmHg 50%
    22:00 +20°C° 0 mm 1 mps 580 mmHg 51%
    23:00 +20°C° 0 mm 1 mps 579 mmHg 53%

    25 October, Thursday

    Time Temperature Precipitation Wind Pressure Humidity
    00:00 +19°C° 0 mm 1 mps 579 mmHg 55%
    01:00 +19°C° 0 mm 1 mps 579 mmHg 56%
    02:00 +18°C° 0 mm 1 mps 578 mmHg 56%
    03:00 +18°C° 0 mm 1 mps 578 mmHg 57%
    04:00 +18°C° 0 mm 1 mps 578 mmHg 58%
    05:00 +16°C° 0 mm 1 mps 578 mmHg 58%
    06:00 +16°C° 0 mm 1 mps 579 mmHg 59%
    07:00 +18°C° 0 mm 1 mps 579 mmHg 53%
    08:00 +20°C° 0 mm 1 mps 580 mmHg 46%
    09:00 +21°C° 0 mm 1 mps 581 mmHg 40%
    10:00 +22°C° 0 mm 1 mps 581 mmHg 37%
    11:00 +23°C° 0 mm 1 mps 581 mmHg 33%
    12:00 +24°C° 0 mm 2 mps 581 mmHg 30%
    13:00 +24°C° 0 mm 2 mps 581 mmHg 30%
    14:00 +24°C° 0 mm 2 mps 580 mmHg 30%
    15:00 +24°C° 0 mm 2 mps 580 mmHg 30%
    16:00 +23°C° 0.1 mm 2 mps 580 mmHg 32%
    17:00 +23°C° 0.1 mm 2 mps 580 mmHg 35%
    18:00 +21°C° 0.1 mm 3 mps 580 mmHg 38%
    19:00 +21°C° 0 mm 2 mps 580 mmHg 41%
    20:00 +20°C° 0 mm 2 mps 580 mmHg 44%
    21:00 +20°C° 0 mm 2 mps 580 mmHg 47%
    22:00 +20°C° 0 mm 1 mps 580 mmHg 50%
    23:00 +20°C° 0 mm 1 mps 580 mmHg 53%
    Show more